Location: Unspecified
(34.1750°S, 150.8048°E)
Time: 12:03:47
(UTC+10:00)

Tiangong - Pass Details

Date: 29 April 2024
Orbit: 372 x 375 km, 41.5° (Epoch: 20 May)

Event Time Altitude Azimuth Distance (km) Brightness Sun altitude
Exits shadow 04:22:05 12° 136° (SE) 1,299 1.0 -27.0°
Drops below altitude 10° 04:22:25 10° 132° (SE) 1,403 1.3 -26.9°
Enters shadow 05:18:05 -72° 278° (W) 12,486 5.5 -15.4°
Maximum altitude 05:57:09 24° 171° (S) 856 -0.4 -7.5°
